User: anonymous   Login
Location: Twentynine Palms Airport
(34.1316°N, 115.9458°W)
Time: 00:08:50
(UTC-08:00)
Language:

Oscar 19 - Orbit

View from above orbital plane
View from above orbital plane
View from above satellite
View from above satellite

Ground track
Ground track

The orbit data is extracted from the following two-line orbital elements,

1 20442U 90005G   16044.06453073  .00000104  00000-0  54083-4 0  9998
2 20442  98.5344 340.8129 0012242 151.2082 208.9780 14.32797076361431
Epoch (UTC): 13 February 2016 01:32:55
Eccentricity: 0.0012242
inclination: 98.5344°
perigee height: 773 km
apogee height: 791 km
right ascension of ascending node: 340.8129°
argument of perigee: 151.2082°
revolutions per day: 14.32797076
mean anomaly at epoch: 208.9780°
orbit number at epoch: 36143

The dashed part of the orbit path shows where the satellite is in the earth's shadow,  

DLR